EW6074 Weather Reports


Display with metric or nautical units.
time (UTC)temp
F
wind
direction
speed
MPH
gust
MPH
rain 1hr
in
rain 24hr
in
rain mn
in
humidity
%
barometer
mb
20260506211357 48 337 3.0 4.0 0.07 0.65 0.65 99 1003.9
20260506210854 48 349 4.0 7.0 0.00 0.64 0.64 99 1003.6
20260506210350 48 347 3.0 4.0 0.00 0.64 0.64 99 1003.4
20260506205842 48 17 2.0 3.0 0.05 0.64 0.64 99 1003.4
20260506205338 48 7 3.0 6.0 0.07 0.63 0.63 99 1003.4
20260506204834 48 12 4.0 6.0 0.07 0.63 0.63 99 1003.2
20260506204332 48 332 6.0 9.0 0.00 0.62 0.62 99 1003.4
20260506203830 49 343 6.0 9.0 0.00 0.62 0.62 99 1003.4
20260506203327 49 2 3.0 6.0 0.00 0.62 0.62 99 1003.1
20260506202823 49 323 4.0 6.0 0.00 0.62 0.62 99 1003.3
20260506202320 49 355 4.0 4.0 0.00 0.62 0.62 99 1003.4
20260506201816 49 357 4.0 6.0 0.00 0.62 0.62 99 1003.4
20260506201314 49 328 5.0 6.0 0.00 0.62 0.62 99 1003.3
20260506200810 49 295 2.0 8.0 0.00 0.62 0.62 99 1003.5
20260506200306 50 354 3.0 6.0 0.00 0.62 0.62 99 1003.4
20260506195803 50 10 2.0 4.0 0.00 0.62 0.62 99 1003.4
20260506195300 51 300 4.0 4.0 0.00 0.62 0.62 99 1003.3
20260506194757 51 341 1.0 2.0 0.07 0.62 0.62 99 1003.2
20260506194253 51 269 2.0 9.0 0.07 0.62 0.62 99 1003.5
20260506193752 52 14 2.0 3.0 0.00 0.61 0.61 99 1003.4
20260506193248 53 305 2.0 6.0 0.05 0.61 0.61 99 1003.6
20260506192744 55 358 2.0 4.0 0.05 0.61 0.61 99 1003.6
20260506192241 55 306 2.0 2.0 0.07 0.60 0.60 99 1003.5
20260506191738 55 333 0.0 2.0 0.07 0.60 0.60 99 1003.5
20260506191234 55 355 1.0 1.0 0.05 0.59 0.59 99 1003.5
20260506190732 55 349 1.0 2.0 0.12 0.59 0.59 99 1003.6
20260506190228 55 334 1.0 2.0 0.12 0.58 0.58 99 1003.7
20260506185725 57 8 0.0 1.0 0.12 0.57 0.57 99 1003.9
20260506185221 57 279 0.0 2.0 0.19 0.56 0.56 99 1004.0
20260506184719 57 264 1.0 2.0 0.12 0.54 0.54 99 1004.1
20260506184216 57 294 2.0 2.0 0.12 0.53 0.53 99 1003.9
20260506183713 57 328 3.0 11.0 0.14 0.52 0.52 99 1003.9
20260506183208 57 276 1.0 2.0 0.12 0.51 0.51 99 1003.9
20260506182706 57 284 1.0 2.0 0.12 0.50 0.50 99 1004.1
20260506182203 57 274 0.0 0.0 0.12 0.49 0.49 99 1003.9
20260506181700 57 232 2.0 2.0 0.05 0.48 0.48 99 1004.2
20260506181158 57 252 0.0 0.0 0.12 0.47 0.47 99 1004.0
20260506180655 57 262 1.0 3.0 0.19 0.47 0.47 99 1004.1
20260506180151 57 164 2.0 2.0 0.12 0.45 0.45 99 1004.4
20260506175648 57 192 2.0 2.0 0.12 0.44 0.44 99 1004.3
20260506175145 57 196 2.0 3.0 0.12 0.43 0.43 99 1004.5
20260506174643 57 164 2.0 4.0 0.12 0.42 0.42 99 1004.6
20260506174139 57 238 2.0 3.0 0.12 0.41 0.41 99 1004.6
20260506173637 57 204 1.0 2.0 0.12 0.40 0.40 99 1004.5
20260506173133 57 146 2.0 2.0 0.07 0.39 0.39 99 1004.5
20260506172630 56 219 1.0 2.0 0.07 0.38 0.38 99 1004.5
20260506172121 55 258 0.0 0.0 0.07 0.38 0.38 99 1004.6
20260506171620 55 327 0.0 0.0 0.05 0.37 0.37 99 1004.4
20260506171117 55 327 0.0 0.0 0.07 0.36 0.36 99 1004.5
20260506170614 55 328 0.0 0.0 0.07 0.36 0.36 99 1004.4
20260506170110 55 325 0.0 1.0 0.05 0.35 0.35 99 1004.6
20260506165609 55 333 1.0 2.0 0.05 0.35 0.35 99 1004.6
20260506165059 55 346 1.0 1.0 0.07 0.34 0.34 99 1004.7
20260506164556 55 16 1.0 2.0 0.07 0.34 0.34 99 1004.6
20260506164053 55 312 0.0 0.0 0.05 0.33 0.33 99 1004.6
20260506163549 55 297 0.0 2.0 0.05 0.33 0.33 99 1004.7
20260506163045 55 200 2.0 2.0 0.00 0.32 0.32 99 1004.9
20260506162541 55 319 0.0 1.0 0.00 0.32 0.32 99 1004.7
20260506162033 55 294 0.0 0.0 0.07 0.32 0.32 99 1005.0
20260506161530 54 254 1.0 2.0 0.07 0.32 0.32 99 1005.1
20260506161027 54 221 0.0 0.0 0.05 0.31 0.31 99 1005.5
20260506160525 54 5 0.0 0.0 0.05 0.31 0.31 99 1005.5
20260506160022 54 271 0.0 0.0 0.00 0.30 0.30 99 1005.7
20260506155521 54 331 0.0 0.0 0.07 0.30 0.30 99 1005.6
20260506153652 53 358 0.0 0.0 0.07 0.28 0.28 99 1006.0
20260506153149 53 358 0.0 0.0 0.07 0.28 0.28 99 1005.9
20260506152646 53 327 0.0 0.0 0.05 0.27 0.27 99 1006.1
20260506152144 53 328 0.0 0.0 0.05 0.27 0.27 99 1006.2
20260506151642 53 311 0.0 0.0 0.00 0.26 0.26 99 1006.2
20260506151138 53 317 1.0 2.0 0.00 0.26 0.26 99 1006.2
20260506150635 53 0 2.0 2.0 0.07 0.26 0.26 99 1006.2
20260506150133 53 5 0.0 1.0 0.07 0.26 0.26 99 1006.3
20260506145629 53 13 0.0 2.0 0.00 0.25 0.25 99 1006.5
20260506145126 53 319 1.0 1.0 0.00 0.25 0.25 99 1006.4
20260506144624 53 287 0.0 0.0 0.07 0.25 0.25 99 1006.2
20260506144120 53 294 1.0 1.0 0.07 0.25 0.25 99 1006.2
20260506143618 53 287 1.0 2.0 0.00 0.24 0.24 99 1006.2
20260506143115 52 301 1.0 2.0 0.00 0.24 0.24 99 1006.2
20260506142614 52 305 1.0 2.0 0.00 0.24 0.24 99 1006.1
20260506142112 52 15 1.0 3.0 0.00 0.24 0.24 99 1006.3
20260506141609 52 6 1.0 2.0 0.00 0.24 0.24 99 1006.2
20260506141107 52 331 2.0 3.0 0.00 0.24 0.24 99 1006.2
20260506140604 52 341 3.0 4.0 0.00 0.24 0.24 99 1006.1
20260506135558 52 337 2.0 3.0 0.00 0.24 0.24 99 1006.1
20260506135054 52 312 2.0 3.0 0.05 0.24 0.24 99 1006.1
20260506134551 52 14 1.0 2.0 0.05 0.24 0.24 99 1005.9
20260506134047 52 356 2.0 3.0 0.07 0.23 0.23 99 1006.2
20260506133544 51 1.0 2.0 0.07 0.23 0.23 99 1006.5
20260506133041 52 285 1.0 2.0 0.00 0.22 0.22 99 1006.8
20260506132539 52 319 2.0 2.0 0.05 0.22 0.22 99 1006.6
20260506132036 52 317 0.0 2.0 0.05 0.22 0.22 99 1006.7
20260506131533 52 347 1.0 2.0 0.00 0.21 0.21 99 1006.4
20260506131029 52 333 2.0 2.0 0.07 0.21 0.21 99 1006.6
20260506130526 51 1 0.0 0.0 0.07 0.21 0.21 99 1006.7
20260506130024 51 331 1.0 1.0 0.00 0.20 0.20 99 1006.7
20260506125522 51 7 3.0 4.0 0.00 0.20 0.20 99 1006.5
20260506125019 51 358 2.0 3.0 0.00 0.20 0.20 99 1006.6
20260506124517 51 354 4.0 4.0 0.00 0.20 0.20 99 1006.5
20260506124015 51 328 1.0 3.0 0.00 0.20 0.20 99 1006.8
20260506123512 52 328 1.0 2.0 0.00 0.20 0.20 99 1006.6
20260506123010 52 323 1.0 3.0 0.00 0.20 0.20 99 1006.5
20260506122506 52 343 2.0 3.0 0.00 0.20 0.20 99 1006.6
20260506122005 52 285 1.0 2.0 0.00 0.20 0.20 99 1006.5
20260506121502 52 324 0.0 0.0 0.00 0.20 0.20 99 1006.5
20260506120958 52 267 0.0 0.0 0.00 0.20 0.20 99 1006.4
20260506120456 52 288 0.0 0.0 0.00 0.20 0.20 99 1006.5
20260506115953 51 289 0.0 0.0 0.00 0.20 0.20 99 1006.6
20260506115451 52 289 0.0 0.0 0.00 0.20 0.20 99 1006.5
20260506114949 51 288 0.0 0.0 0.00 0.20 0.20 99 1006.6
20260506114446 51 337 0.0 0.0 0.00 0.20 0.20 99 1006.5
20260506113945 51 337 0.0 0.0 0.00 0.20 0.20 99 1006.7
20260506113442 51 331 0.0 0.0 0.00 0.20 0.20 99 1006.6
20260506112938 51 325 0.0 0.0 0.00 0.20 0.20 99 1007.1
20260506112436 51 5 0.0 0.0 0.00 0.20 0.20 99 1007.2
20260506111933 51 346 0.0 0.0 0.00 0.20 0.20 99 1007.1
20260506111431 51 27 0.0 0.0 0.00 0.20 0.20 99 1007.1
20260506110928 51 352 0.0 0.0 0.00 0.20 0.20 99 1007.5
20260506110426 51 311 0.0 0.0 0.00 0.20 0.20 99 1007.2
20260506105922 51 304 0.0 0.0 0.00 0.20 0.20 99 1007.0
20260506105418 51 325 0.0 0.0 0.00 0.20 0.20 99 1007.1
20260506104916 51 91 0.0 0.0 0.00 0.20 0.20 99 1007.1
20260506104414 51 189 0.0 0.0 0.00 0.20 0.20 99 1007.2
20260506103912 51 306 0.0 0.0 0.00 0.20 0.20 99 1007.3
20260506103409 51 284 0.0 0.0 0.00 0.20 0.20 99 1007.2
20260506102906 51 318 0.0 0.0 0.00 0.20 0.20 99 1006.8
20260506102404 51 318 0.0 0.0 0.00 0.20 0.20 99 1006.8
20260506101901 51 319 0.0 0.0 0.00 0.20 0.20 99 1006.8
20260506101356 51 319 0.0 0.0 0.00 0.20 0.20 99 1006.7
20260506100854 51 317 0.0 0.0 0.00 0.20 0.20 99 1007.3
20260506100352 51 316 0.0 0.0 0.00 0.20 0.20 99 1007.3
20260506095850 51 297 0.0 0.0 0.00 0.20 0.20 99 1007.4
20260506095348 51 295 0.0 1.0 0.00 0.20 0.20 99 1007.2
20260506094844 51 343 1.0 1.0 0.00 0.20 0.20 99 1007.1
20260506094343 51 345 1.0 2.0 0.00 0.20 0.20 99 1007.2
20260506093835 51 28 0.0 0.0 0.00 0.20 0.20 99 1007.4
20260506093332 51 29 0.0 0.0 0.00 0.20 0.20 99 1007.6
20260506092830 51 358 1.0 2.0 0.00 0.20 0.20 99 1007.4
20260506092327 51 356 2.0 2.0 0.00 0.20 0.20 99 1007.7
20260506091823 51 73 0.0 0.0 0.00 0.20 0.20 99 1007.8
20260506091321 51 320 0.0 0.0 0.00 0.20 0.20 99 1008.0
20260506090819 51 321 0.0 0.0 0.00 0.20 0.20 99 1007.7
20260506090316 51 340 0.0 0.0 0.00 0.20 0.20 99 1007.3
20260506085813 51 293 0.0 0.0 0.00 0.20 0.20 99 1007.6
20260506085309 51 292 0.0 1.0 0.00 0.20 0.20 99 1007.5
20260506084806 51 36 0.0 0.0 0.00 0.20 0.20 99 1007.8
20260506084302 51 35 0.0 0.0 0.00 0.20 0.20 99 1007.5
20260506083759 51 359 0.0 0.0 0.00 0.20 0.20 99 1007.4
20260506083257 52 227 0.0 0.0 0.00 0.20 0.20 99 1007.7
20260506082754 52 269 0.0 0.0 0.00 0.20 0.20 99 1007.5
20260506082250 52 266 0.0 0.0 0.00 0.20 0.20 99 1007.4
20260506081747 52 269 0.0 0.0 0.00 0.20 0.20 99 1007.2
20260506081245 52 266 1.0 1.0 0.00 0.20 0.20 99 1007.3
20260506080743 52 218 0.0 0.0 0.00 0.20 0.20 99 1007.3
20260506080239 52 20 0.0 1.0 0.00 0.20 0.20 99 1007.2
20260506073223 52 251 0.0 0.0 0.00 0.19 0.19 99 1007.4
20260506072720 52 258 0.0 0.0 0.00 0.19 0.19 99 1007.8
20260506072217 52 258 0.0 0.0 0.00 0.19 0.19 99 1008.0
20260506071715 52 242 1.0 1.0 0.00 0.19 0.19 99 1008.0
20260506071213 52 272 1.0 1.0 0.07 0.19 0.19 99 1007.9
20260506070709 52 101 1.0 2.0 0.07 0.19 0.19 99 1007.7
20260506070207 52 186 1.0 2.0 0.05 0.18 0.18 99 1008.0
20260506062143 53 84 1.0 2.0 0.42 0.10 0.10 99 1007.8
20260506061639 53 316 1.0 1.0 0.12 0.05 0.05 99 1008.2
20260506061137 53 293 1.0 2.0 0.00 0.03 0.03 99 1007.8
20260506060635 53 357 1.0 2.0 0.00 0.03 0.03 99 1007.6
20260506060132 53 342 1.0 2.0 0.00 0.03 0.03 99 1007.7
20260506051104 55 17 0.0 2.0 0.14 0.02 0.02 99 1007.8
20260506050602 55 29 1.0 8.0 0.07 0.01 0.01 99 1007.8
20260506045052 56 354 1.0 4.0 0.00 0.00 0.00 99 1007.3
20260506044550 56 324 2.0 8.0 0.00 0.00 0.00 99 1007.0
20260506044046 55 314 2.0 3.0 0.00 0.00 0.00 99 1006.7
20260506043544 55 272 1.0 3.0 0.00 0.00 0.00 99 1006.3
20260506043042 55 260 2.0 3.0 0.00 0.00 0.00 99 1006.1
20260506042541 55 248 2.0 2.0 0.00 0.00 0.00 99 1006.1
20260506042038 55 291 0.0 0.0 0.00 0.00 0.00 99 1006.0
20260506041537 55 292 0.0 0.0 0.00 0.00 0.00 99 1005.7
20260506041033 55 292 0.0 0.0 0.00 0.00 0.00 99 1006.1
20260506040531 55 292 0.0 0.0 0.00 0.00 0.00 99 1006.0
20260506040027 55 291 0.0 0.0 0.00 0.00 0.00 99 1006.2
20260506035524 56 292 0.0 0.0 0.00 0.14 0.14 99 1005.9
20260506035021 56 292 0.0 0.0 0.00 0.14 0.14 97 1005.9
20260506034518 56 290 0.0 0.0 0.00 0.14 0.14 97 1006.0
20260506034015 56 256 0.0 0.0 0.00 0.14 0.14 96 1006.0
20260506033513 57 230 0.0 1.0 0.00 0.14 0.14 95 1006.2
20260506033009 57 210 2.0 4.0 0.00 0.14 0.14 96 1006.1
20260506032507 57 260 0.0 2.0 0.00 0.14 0.14 95 1006.0
20260506032003 57 248 1.0 1.0 0.00 0.14 0.14 92 1006.0
20260506031501 57 216 0.0 2.0 0.00 0.14 0.14 90 1005.8
20260506030958 56 133 0.0 2.0 0.00 0.14 0.14 98 1005.8
20260506030456 55 227 1.0 2.0 0.00 0.14 0.14 99 1005.8
20260506025953 55 199 1.0 2.0 0.00 0.14 0.14 99 1005.8
20260506025449 55 225 1.0 2.0 0.00 0.14 0.14 99 1005.6
20260506024946 55 244 1.0 2.0 0.00 0.14 0.14 99 1005.8
20260506024443 56 266 0.0 0.0 0.00 0.14 0.14 98 1005.7
20260506023938 57 266 1.0 3.0 0.00 0.14 0.14 95 1005.8
20260506023436 57 262 1.0 2.0 0.00 0.14 0.14 92 1005.8
20260506022932 57 229 1.0 2.0 0.00 0.14 0.14 93 1005.5
20260506022430 56 236 1.0 3.0 0.00 0.14 0.14 94 1005.6
20260506021928 56 208 1.0 1.0 0.00 0.14 0.14 97 1005.7
20260506021425 57 175 1.0 2.0 0.00 0.14 0.14 96 1005.7
20260506020922 57 195 0.0 2.0 0.00 0.14 0.14 93 1005.9
20260506020420 59 220 1.0 2.0 0.00 0.14 0.14 89 1005.7
20260506015916 58 137 1.0 2.0 0.00 0.14 0.14 90 1005.8
20260506015414 59 178 0.0 2.0 0.00 0.14 0.14 89 1005.8
20260506014911 59 152 1.0 2.0 0.00 0.14 0.14 89 1005.8
20260506014408 60 146 1.0 3.0 0.00 0.14 0.14 88 1005.9
20260506013904 59 188 2.0 2.0 0.00 0.14 0.14 91 1005.9
20260506013402 59 137 3.0 3.0 0.00 0.14 0.14 91 1005.9
20260506012858 59 145 1.0 1.0 0.00 0.14 0.14 92 1006.0
20260506012355 59 155 2.0 4.0 0.00 0.14 0.14 89 1006.0
20260506011852 59 162 3.0 4.0 0.00 0.14 0.14 89 1006.0
20260506011349 59 166 1.0 2.0 0.00 0.14 0.14 92 1006.0
20260506010846 59 83 3.0 4.0 0.00 0.14 0.14 89 1005.9
20260506010344 59 147 1.0 2.0 0.00 0.14 0.14 92 1005.9
20260506005841 58 159 3.0 3.0 0.00 0.14 0.14 94 1005.8
20260506005338 57 106 2.0 2.0 0.00 0.14 0.14 94 1006.0
20260506004833 58 121 1.0 2.0 0.00 0.14 0.14 96 1005.8
20260506004332 59 164 2.0 2.0 0.00 0.14 0.14 91 1005.7
20260506003827 58 157 2.0 3.0 0.00 0.14 0.14 92 1005.6
20260506003324 58 188 1.0 3.0 0.00 0.14 0.14 97 1005.6
20260506002820 58 187 1.0 2.0 0.00 0.14 0.14 97 1005.4
20260506002317 59 117 2.0 3.0 0.00 0.14 0.14 92 1005.2
20260506001812 59 181 2.0 3.0 0.00 0.14 0.14 92 1005.2
20260506001310 59 188 3.0 3.0 0.00 0.14 0.14 92 1005.3
20260506000807 58 221 1.0 2.0 0.00 0.14 0.14 97 1005.1
20260506000304 59 200 2.0 3.0 0.00 0.14 0.14 96 1005.0
20260505235801 59 278 0.0 1.0 0.00 0.14 0.14 95 1005.1
20260505235259 59 204 1.0 3.0 0.00 0.14 0.14 94 1005.1
20260505234755 58 147 6.0 7.0 0.00 0.14 0.14 95 1004.9
20260505234253 57 36 0.0 2.0 0.00 0.14 0.14 99 1004.9
20260505233749 57 117 0.0 1.0 0.00 0.14 0.14 99 1004.9
20260505233248 58 85 1.0 1.0 0.00 0.14 0.14 99 1004.7
20260505232744 57 101 2.0 2.0 0.00 0.14 0.14 99 1005.1
20260505232242 57 129 2.0 2.0 0.00 0.14 0.14 99 1005.0
20260505231738 57 121 2.0 3.0 0.00 0.14 0.14 99 1004.9
20260505231237 57 71 1.0 2.0 0.00 0.14 0.14 99 1004.9
20260505230735 58 103 1.0 2.0 0.00 0.14 0.14 99 1005.1
20260505230231 58 168 1.0 2.0 0.00 0.14 0.14 99 1005.1
20260505225728 58 177 1.0 2.0 0.00 0.14 0.14 99 1005.0
20260505225225 58 155 1.0 2.0 0.00 0.14 0.14 99 1004.9
20260505224720 58 138 4.0 4.0 0.00 0.14 0.14 99 1004.7
20260505224218 58 175 2.0 3.0 0.00 0.14 0.14 99 1004.8
20260505223716 58 206 2.0 2.0 0.00 0.14 0.14 99 1004.8
20260505223212 59 190 1.0 2.0 0.00 0.14 0.14 99 1004.6
20260505222708 59 290 0.0 1.0 0.00 0.14 0.14 99 1004.6
20260505222204 59 265 2.0 3.0 0.00 0.14 0.14 97 1004.5
20260505221702 59 107 4.0 8.0 0.05 0.14 0.14 97 1004.4
20260505221158 59 210 2.0 6.0 0.05 0.14 0.14 99 1004.7
20260505220655 59 122 5.0 15.0 0.00 0.13 0.13 98 1005.0
20260505220153 59 152 5.0 16.0 0.07 0.13 0.13 98 1004.8
20260505215650 59 141 6.0 8.0 0.19 0.13 0.13 98 1004.9
20260505215148 59 129 5.0 11.0 0.12 0.11 0.11 98 1005.4
20260505214646 59 153 9.0 10.0 0.05 0.10 0.10 97 1005.2
20260505214143 59 155 3.0 8.0 0.00 0.09 0.09 97 1005.3
20260505213640 59 158 3.0 7.0 0.07 0.09 0.09 96 1005.2
20260505213137 59 229 6.0 8.0 0.07 0.09 0.09 94 1004.9
20260505212632 59 197 4.0 13.0 0.05 0.08 0.08 93 1005.0
20260505212131 60 139 6.0 13.0 0.05 0.08 0.08 93 1004.4